Location: Hormuz
(27.0871°N, 56.4580°E)
Time: 05:13:26
(UTC+04:30)

X-37B - Pass Details

Date: 21 June 2021
Orbit: 383 x 392 km, 45.0° (Epoch: 01 July)

Event Time Altitude Azimuth Distance (km) Brightness Sun altitude
Rises 20:36:37 0° 209° (SSW) 2,241 4.4 -11.4°
Reaches altitude 10° 20:38:50 10° 197° (SSW) 1,390 3.2 -11.8°
Maximum altitude 20:41:34 27° 136° (SE) 761 1.5 -12.3°
Enters shadow 20:43:01 19° 92° (E) 983 2.1 -12.6°
